Blacksburg, VA

5:18 AM EDT on July 22, 2017 (GMT -0400)
Virginia Tech

Weather History for KBCB - January, 2013

Change the Weather History Date:

Wednesday, January 16, 2013

  Actual Average Record
Temperature  
Mean Temperature 41 °F 31 °F  
Max Temperature 48 °F 41 °F 62 °F (1953)
Min Temperature 33 °F 21 °F -10 °F (1972)
Degree Days  
Heating Degree Days 24 34  
Month to date heating degree days 401 544  
Since 1 July heating degree days 2490 2691  
Cooling Degree Days 0 0  
Month to date cooling degree days 0 0  
Year to date cooling degree days 0 0  
Moisture  
Dew Point 43 °F    
Average Humidity 100    
Maximum Humidity 100    
Minimum Humidity 100    
Precipitation  
Precipitation 0.47 in 0.10 in 1.05 in (1998)
Month to date precipitation 3.60 1.60  
Year to date precipitation 3.60 1.60  
Snow  
Snow 0.00 in - - ()
Month to date snowfall T  
Since 1 July snowfall 2.5  
Snow Depth 0.00 in    
Sea Level Pressure  
Sea Level Pressure 30.01 in    
Wind  
Wind Speed 3 mph (WSW)    
Max Wind Speed 10 mph    
Max Gust Speed -    
Visibility 8 miles    
Events Rain , Snow    
T = Trace of Precipitation, MM = Missing Value Source: NWS Daily Summary

Daily Weather History Graph

Daily Weather History Graph

Search for Another Location

Airport or City:

Trip Planner

Search our weather history database for the weather conditions in past years. The results will help you decide how hot, cold, wet, or windy it might be!

Date:

Astronomy

Jan. 16, 2013 Rise Set
Actual Time 7:34 AM EST 5:29 PM EST
Civil Twilight 7:05 AM EST 5:57 PM EST
Nautical Twilight 6:33 AM EST 6:29 PM EST
Astronomical Twilight 6:02 AM EST 7:00 PM EST
Moon 10:17 AM EST (1/16) 11:10 PM EST (1/16)
Length of Visible Light 10h 52m
Length of Day
9h 55m
Waxing Crescent, 28% of the Moon is Illuminated
Jan 16
Waxing Crescent
Jan 18
First Quarter
Jan 26
Full
Feb 3
Last Quarter
Feb 10
New

Hourly Weather History & Observations

Time (EST) Temp. Windchill Dew Point Humidity Pressure Visibility Wind Dir Wind Speed Gust Speed Precip Events Conditions
12:00 AM 37.4 °F 33.8 °F 37.4 °F 100% 30.07 in 4.0 mi ESE 4.6 mph - 0.01 in Rain Rain
12:17 AM 37.4 °F 32.8 °F 37.4 °F 100% 30.07 in 3.0 mi ESE 5.8 mph - 0.03 in Rain Light Rain
12:37 AM 37.4 °F 32.8 °F 37.4 °F 100% 30.06 in 2.5 mi ESE 5.8 mph - 0.03 in   Drizzle
12:56 AM 37.4 °F 34.9 °F 37.4 °F 100% 30.07 in 5.0 mi East 3.5 mph - N/A   Drizzle
1:17 AM 37.4 °F 34.9 °F 37.4 °F 100% 30.06 in 4.0 mi East 3.5 mph - 0.01 in   Drizzle
1:57 AM 37.4 °F 34.9 °F 37.4 °F 100% 30.07 in 7.0 mi SE 3.5 mph - N/A Rain Rain
2:37 AM 37.4 °F - 37.4 °F 100% 30.05 in 1.2 mi Calm Calm - 0.02 in Rain Light Rain
2:57 AM 37.4 °F - 37.4 °F 100% 30.04 in 10.0 mi Calm Calm - N/A Rain Light Rain
3:17 AM 37.4 °F - 37.4 °F 100% 30.03 in 10.0 mi Calm Calm - N/A   Light Drizzle
4:37 AM 37.4 °F - 37.4 °F 100% 30.00 in 10.0 mi Calm Calm - N/A   Overcast
5:03 AM 37.4 °F 34.9 °F 37.4 °F 100% 29.99 in 10.0 mi ESE 3.5 mph - N/A   Overcast
5:21 AM 37.4 °F - 37.4 °F 100% 30.00 in 7.0 mi Calm Calm - N/A   Drizzle
5:36 AM 37.4 °F - 37.4 °F 100% 29.99 in 1.5 mi Calm Calm - 0.01 in Rain Rain
6:01 AM 37.4 °F 33.8 °F 37.4 °F 100% 29.98 in 5.0 mi ESE 4.6 mph - 0.01 in Rain Rain
6:37 AM 37.4 °F 34.9 °F 37.4 °F 100% 29.99 in 3.0 mi ESE 3.5 mph - 0.11 in Snow Light Snow
7:02 AM 37.4 °F - 37.4 °F 100% 29.99 in 3.0 mi Calm Calm - N/A   Heavy Drizzle
7:16 AM 37.4 °F - 37.4 °F 100% 30.00 in 4.0 mi Calm Calm - 0.02 in Rain Light Rain
7:41 AM 37.4 °F - 37.4 °F 100% 30.00 in 10.0 mi Calm Calm - 0.03 in   Overcast
7:57 AM 37.4 °F - 37.4 °F 100% 30.02 in 10.0 mi Calm Calm - N/A   Overcast
8:17 AM 37.4 °F - 37.4 °F 100% 30.03 in 1.5 mi Calm Calm - 0.09 in   Overcast
8:41 AM 37.4 °F - 37.4 °F 100% 30.03 in 2.5 mi Calm Calm - 0.12 in Rain Rain
9:01 AM 39.2 °F - 39.2 °F 100% 30.05 in 7.0 mi Calm Calm - N/A   Drizzle
9:37 AM 39.2 °F - 39.2 °F 100% 30.04 in - Calm Calm - 0.02 in   Overcast
10:04 AM 41.0 °F 39.0 °F 41.0 °F 100% 30.05 in 7.0 mi SSW 3.5 mph - N/A   Light Drizzle
10:22 AM 42.8 °F - 42.8 °F 100% 30.05 in 10.0 mi Calm Calm - N/A Rain Light Rain
10:37 AM 42.8 °F - 42.8 °F 100% 30.04 in 10.0 mi Calm Calm - N/A   Light Drizzle
10:57 AM 42.8 °F 40.1 °F 42.8 °F 100% 30.02 in 10.0 mi South 4.6 mph - N/A   Overcast
11:17 AM 42.8 °F - 42.8 °F 100% 29.99 in 10.0 mi Calm Calm - N/A   Overcast
11:41 AM 44.6 °F - 44.6 °F 100% 29.98 in 10.0 mi Calm Calm - N/A   Overcast
12:01 PM 44.6 °F - 44.6 °F 100% 29.97 in 10.0 mi Calm Calm - N/A   Overcast
12:17 PM 44.6 °F - 44.6 °F 100% 29.97 in 7.0 mi Calm Calm - N/A   Overcast
12:36 PM 44.6 °F 43.1 °F 44.6 °F 100% 29.96 in 4.0 mi WNW 3.5 mph - N/A   Overcast
12:57 PM 44.6 °F 41.4 °F 44.6 °F 100% 29.95 in 4.0 mi WNW 5.8 mph - N/A   Overcast
1:20 PM 44.6 °F - 44.6 °F 100% 29.94 in 5.0 mi Calm Calm - N/A   Overcast
1:43 PM 46.4 °F - 46.4 °F 100% 29.94 in 4.0 mi Calm Calm - N/A   Overcast
1:57 PM 46.4 °F 44.3 °F 46.4 °F 100% 29.95 in 5.0 mi WNW 4.6 mph - N/A   Overcast
2:16 PM 46.4 °F 45.2 °F 46.4 °F 100% 29.95 in 10.0 mi WNW 3.5 mph - N/A   Overcast
2:41 PM 48.2 °F - 48.2 °F 100% 29.96 in 10.0 mi Calm Calm - N/A   Overcast
2:56 PM 50.0 °F - 50.0 °F 100% 29.96 in 10.0 mi Calm Calm - N/A   Overcast
3:21 PM 51.8 °F - 51.8 °F 100% 29.96 in 10.0 mi Calm Calm - N/A   Overcast
4:03 PM 51.8 °F - 51.8 °F 100% 29.95 in 10.0 mi South 4.6 mph - N/A Rain Light Rain
4:56 PM 51.8 °F - 51.8 °F 100% 29.95 in 10.0 mi Calm Calm - N/A   Overcast
5:17 PM 50.0 °F - 50.0 °F 100% 29.96 in 10.0 mi West 3.5 mph - N/A   Overcast
6:37 PM 50.0 °F - 50.0 °F 100% 30.00 in 10.0 mi West 4.6 mph - N/A   Overcast
7:01 PM 48.2 °F - 48.2 °F 100% 30.02 in 10.0 mi WNW 10.4 mph - N/A   Overcast
7:37 PM 46.4 °F 45.2 °F 46.4 °F 100% 30.02 in 10.0 mi West 3.5 mph - N/A Rain Rain
7:57 PM 44.6 °F 43.1 °F 44.6 °F 100% 30.02 in 10.0 mi West 3.5 mph - N/A   Light Drizzle
8:17 PM 44.6 °F 43.1 °F 44.6 °F 100% 30.02 in 10.0 mi WSW 3.5 mph - N/A Rain Light Rain
8:40 PM 44.6 °F 43.1 °F 44.6 °F 100% 30.01 in 10.0 mi West 3.5 mph - N/A   Light Drizzle
8:57 PM 44.6 °F 43.1 °F 44.6 °F 100% 30.01 in 10.0 mi WNW 3.5 mph - N/A   Overcast
9:20 PM 44.6 °F 41.4 °F 44.6 °F 100% 30.02 in 10.0 mi NW 5.8 mph - N/A   Overcast
9:43 PM 44.6 °F 42.2 °F 44.6 °F 100% 30.02 in 10.0 mi West 4.6 mph - N/A   Overcast
10:00 PM 44.6 °F - 44.6 °F 100% 30.02 in 10.0 mi Calm Calm - N/A   Overcast
10:19 PM 44.6 °F 43.1 °F 44.6 °F 100% 30.02 in 10.0 mi West 3.5 mph - N/A   Overcast
10:42 PM 44.6 °F 42.2 °F 44.6 °F 100% 30.01 in 10.0 mi West 4.6 mph - N/A Rain Rain
10:59 PM 44.6 °F 43.1 °F 44.6 °F 100% 30.02 in 10.0 mi West 3.5 mph - N/A Rain Rain
11:17 PM 44.6 °F 42.2 °F 44.6 °F 100% 30.02 in 10.0 mi West 4.6 mph - N/A Rain Rain
11:40 PM 44.6 °F 42.2 °F 44.6 °F 100% 30.02 in 10.0 mi West 4.6 mph - 0.01 in Rain Light Rain
11:57 PM 44.6 °F 42.2 °F 44.6 °F 100% 30.02 in 10.0 mi West 4.6 mph - 0.01 in Rain Light Rain